[Date Prev][Date Next][Thread Prev][Thread Next][Date Index][Thread Index]

[jamsat-news:1561] jas2info #238


========================   最新情報   ==============================

        Last updated :MON.06AUG2001  20:40(JST)   #238
        
====================================================================
   
  1)アマチュア通信衛星情報、FOシリーズの軌道要素、テレメトリ、QSOの
   状況等をまとめてみました.
   
   FO−29の2001年8月6日(月)の20:43(JST)のパスでは
  JARLのホームページのとうりアナログ運用でした。 今週の観測した
  テレメトリーと最終の分析結果を掲載しておきます.

AS24545C   06AUG2001
19:43-19:56(JST)
FREQ.435.803-.787MHz

HI HI AE C7 88 55 00 D5 00 00 09 00 2C 66 5D 64 9D 9A B0 5F A4 9F 98 9E 9F 
HI HI AE C7 88 55 00 D5 00 00 09 00 2C 64 6E 64 9D 9B B0 75 A4 9F 98 9E 9F 
HI HI AE C7 88 55 00 D4 00 00 09 00 2C 63 6E 64 9D 9A B0 6E A4 9E 97 9E 9E 
HI HI AE C7 88 55 00 D4 00 00 09 00 2D 62 6E 64 9D 9A B0 74 A4 9E 98 9E 9F 
HI HI AE C7 88 55 00 D4 00 00 09 00 2E 61 6E 64 9D 9A B0 6C A4 9E 97 9E 9F 
HI HI AE C7 88 55 00 D4 00 00 09 00 30 60 6E 64 9D 9B B0 5F A4 9E 98 9E 9E 
HI HI AE C7 88 55 00 D4 00 00 09 00 33 5F 6E 64 9D 9A B0 7F A4 9E 97 9E 9E 
HI HI AE C7 88 55 00 D4 00 00 09 00 55 59 6E 64 9D 9D B0 72 A5 9E 96 9E 9E 
HI HI AE C7 88 55 00 D5 00 00 09 00 51 5A 6E 64 9D 9A B0 74 A4 8E 96 9E 9E 
HI HI AE C7 88 55 00 D4 00 00 09 00 3E 62 65 64 9D 9A B0 82 A4 9E 95 9E 9E 
HI HI AE C7 88 55 00 D4 00 00 09 00 43 64 62 64 9D 9B B0 75 A4 9E 96 9E 9F 
HI HI AE C7 88 55 00 D4 00 00 09 00 55 67 60 64 9D 9A B0 82 A4 9E 97 9E 9E 
HI HI AE C7 88 55 00 D4 00 00 09 00 50 6A 65 64 9D 9B B0 7F A4 9E 97 9E 9E 
HI HI AE C7 88 55 00 D4 00 00 09 00 55    65 64 9D 9B B0 7D A4 9E 97 9E 9E 
HI HI AE C7 88 55 00 D4 00 00 09 00 5F 71 6E 64 9D 9B B0 7B A5 9D 97 9E 9E 
HI HI AE C7 88 55 00 D4 00 00 09 00 66 75 71 64 9D 9A B0 7B A4 9D 97 9E 9E 
HI HI AE C7 88 55 00 D4 00 00 09 00 5D 78 71 64 9D 9B B0 94 A4 9D 97 9E 9E 
HI HI AE C7 88 55 00 D5 00 00 09 00 65 75 75 64 9D 9B B0 75 A4 9D 97 9E 9E
HI HI AE C7 88 55 00 D5 00 00 09 00 5E 79 74 64 9D 9B B0 75 A4 9D 97 9E 9E 

AS24540C  6AUG2001
10:15-10:26(JST)
FREQ.435.800-.792MHz

HI HI AE C7 88 55 00 D4             66 4D 83 64 9C 9A B0 5B 9D 9B A5 A2 9E  
HI HI AE C7 88 55 00 D4 00 00 09 00 2B 9C 7E 64 9C 9A B0 6E 9C 9B A5 A2 9E
HI HI AE C7 88 55 00 D4 00 00 09 65  B    7D 64 9C 9A B0 6D 9C 9B A5 A2 9E
HI HI AE C7 88 55 00 D4 00 00 09 00 2B 50    64 9C 9A B0 75 9C 9B A5 A2 AE
HI HI AE C7 88 55 00 D4       09 65 64 78 7E 64 9C 9A B0 6E 9C 9B A5 A2 9E  
HI HI AE C7 88 55 00 D4 00 00 09 69 3C 88 7A 64 9C 9A B0 6D 9C 9B A5 A2 9E 
HI HI AE C7 88 55 00 D4 00 00    75 37 87 7C 64 9C 9A B0 57 9C 9B A4 A2 9E 
HI HI AE C7 88 55 00 D4 00 00    80 32 84 7A 64 9C 9A B0 84 9C 9B A4 A2 9E 
HI HI AE C7 88 55 00 D4          81 2E 7E 76 64 9D 9A B0 6D 9C 9B A4 A2 9E 
HI HI AE C7 88 55 00 D4 00 00 09 00 2B 77 70 64 9C 9A B0 85 9B 9B A4 A2 9E 

AS24504C1   03AUG2001
18:56-19:08(JST)
FREQ.435.802-.790MHz

HI HI AE C7 88 55 00 D4 DB 6A 09 71 81 AC 6B 64 9C 99 B0 A8 9B 97 A1 A0 9C 
HI HI AE C7 88 55 00 D4 DB 6A 09 71 81 AC 6B 64 9C 99 B0 88 9B 98 A0 A0 9C
HI HI AE C7 88 55 00 D4 DB 6A 09 71 86 A9 6B 64 9C 99 B0 61 9B 97 A0 A0 9C 
HI HI AE C7 88 55 00 D4 DB 6A 09 71 89 A4 6A 64 9C 9A B0 7D 9B 97 A0 A0 6C 
HI HI AE C7 88 55 00 D4 DB 6A 09 71 8C A0 68 64 9C 99 B0 8B 9B 97 A0 A0 9C 
HI HI AE C7 88 55 00 D4 DB 6A 09 71 8E 9B 65 64 9C 9A B0 88 9B 97 A0 A0 9C 
HI HI AE C7 88 55 00 D4 DB 6A 09 71 90 96 63 64 9C 98 B0 76 9B 97 A1 A0 9C 
HI HI AE C7 88 55 00 D4 DB 6A 09 71 91 91 60 64 9C 9A B0 6A 9A 97 A0 A0 9C
HI HI AE C7 88 55 00 D4 DB 6A 09 71 92 8B 5D 64 9C 99 B0 74 9A 96 A0 A0 9C 
HI HI AE C7 88 55 00 D4 DB 6A 09 71 92 86 59 64 9C 9A B0 79 9A 97 A0 A0 9C 
HI HI AE C7 88 55 00 D4 DB 6A 09 71 92 81 57 64 9C 99 B0 72 9A 97 A0 A0 9C 
HI HI AE C7 88 55 00 D4 DB 6A 09 71 92 7C 55 64 9C 96 B0 89 9A 96 A0 A0 9C
HI HI AE C7 88 55 00 D4 DB 6A 09 71 91 77 53 64 9C 9A B0 5A 9A 97 A0 A0 9C 
HI HI AE C7 88 55 00 D4 DB 6A 09 71 90 73 52 64 9C 99 B0 6D 9A 96 A0 A0 9C
HI HI AE C7 88 55 00 D4 DB 6A 09 71 8F 6F 53 64 9C 99 B0 81 99 97 A0 A0 9C
HI HI AE C7 88 55 00 D4 DB 6A 09 71 8E 6B 4E 63 9C 99 B0 7B 99 97 A0 A0 9C 
HI HI AE C7 88 55 00 D4 DB 6A 09 71 8D 68 4B 64 9C 99 AF 7D 99 97 A0 A0 9C
AS24499C1   03AUG2001
9:36-9:41(JST)
FREQ.435.792-.789MHz

                                                         62 A2 A0 9F A0 9F 
HI HI AE C7 88 55 00 D4 47 2F 09 41 6A 28 7A 64 9D 9A B0 61 A2 A1 9F A0 9F 
HI HI AE C7 88 55 00 D4 47 2F 08 41 75 29 7A 64 9C 9A B0 65 A2 A0 A0 A0 9E 
HI HI AE C7 88 55 00 D4 47 2F 09 41 81 55 59 64 9C 9A B0 68 A2 A0 A0 A0 9E
HI HI AE C7 88 55 00 D4 47 2F 09 41 8A 30 76 64 9C 9A B0 6E A2 A0 A0 A0 9E 
HI HI AE C7 88 55 00 D4 47 2F 09 41 93 37 73 64 9D 9A B0 77 A2 A0 9F A0 9F 
HI HI AE C7 88 55 00 D4 47 2F 09 41 9C 40 73 64 9C 9A B0 87 A2 9F A0 A0 9E
HI HI AE C7 88 55 00 D4 47 2F 08 51 9A 55

AS24491C1   02AUG2001
19:50-20:05(JST)
FREQ.435.804-.787MHz
                                                              
HI HI AE C7 88 55 00 D4 00 ED 09 12 55 61 6E 64 9C 9A B0 78 A0 9C 9E A0 9E 
HI HI AE C7 88 55 00 D4 00 ED 09 12 55 53 6E 64 9D 9A B0 54 A0 9C 9E A0 9E 
HI HI AE C7 88 55 00 D4 00 ED 09 12 55 52 6B 64 9C 9A B0 55 A0 9C 9E A0 9E 
HI HI AE C7 88 55 00 D4 00 ED 09 12 55 57 68 64 9C 9A B0 72 A0 9C 9E A0 9E 
HI HI AE C7 88 55 00 D4 00 ED 09 12 55 55 67 64 9C 9A B0 6F A0 9C 9E A0 AE 
HI HI AE C7 58 55 00 D4 04 ED 09 12 49 68 67 64 9D 9A B0 B4 A0 9C 9E A0 AE 
HI HI AE C7 88 55 00 D4 04 ED 09 12 52 69                85 A0 9B 9D A0 AE 
HI HI AE C7 88 55 00 D4 04 ED 09 12 52          9C 9A B0    A0 9B 9D 9A AE 
HI HI AE C7 88 55 00 D4 04 ED 09 12 52          9D 9A B0 6A A0 9B 9D 9A AE
HI HI AE C7 88 55 00 D4 04 ED 09 12 52 7A 67 64 9C 9A B0 59 A0 9B 9D A0 9E 
HI HI AE C7 88 55 00 D4 04 ED 09 12 54 75 6A 64 9C 9A B0 55 A0 9B 9D A0 AE  
HI HI AE C7 88 55 00 D4 04 ED 09 12 54 70 69 64 9C 9A B0 A3 A0 9B 9D A0 9E 
HI HI AE C7 88 55 00 D4 04 ED 09 12 54 6A 68 64 9C 9A B0 B0 A0 9B 9D A0 9E 
HI HI AE C7 88 55 00 D4 04 ED 09 12 52 63       9C 9A B0 72 A0 9A 9D A0 AE   
HI HI AE C7 88 55 00 D4 04 ED 09 12 5E 61 62 64 9C 9A B0 71 A0 9A 9D A0 9E 
HI HI AE C7 88 55 00 D4 04 ED 09 12 4B          9D 9A B0 73 9F 9A 9D A1 9E 
HI HI AE C7 88 55 00 D4 04 ED 09 12 46    5A 64 9C 9A B0 73 A0 9A 9D A1 9E 
HI HI AE C7 88 55 00 D4 04 ED 09 12 42 5B 55 64 9C 9A B0 77 9F 9A 9D A1 9E 
HI HI AE C7 88 55 00 D4 04 ED 09 12 3E 5D 54 64 9D 9A B0 6C 9F 9A 9D A1 9E 	
 ------------------------ FO-29の軌道要素 ------------------------------        
 
  ■ 軌道要素1:「jamsat−keps:1022」より         
          SB KEPS @ AMSAT  $ORB01207.N
          2Line Orbital Elements 01207.AMSAT

HR AMSAT ORBITAL ELEMENTS FOR AMATEUR SATELLITES IN NASA FORMAT
FROM WA5QGD FORT WORTH,TX July 26, 2001
SEND SUBSCRIBE/UNSUBSCRIBE TO majordomo@amsat.org ONLY
BID: ORB01207.N

 DECODE 2-LINE ELSETS WITH THE FOLLOWING KEY:
 1 AAAAAU 00  0  0 BBBBB.BBBBBBBB  .CCCCCCCC  00000-0  00000-0 0  DDDZ
 2 AAAAA EEE.EEEE FFF.FFFF GGGGGGG HHH.HHHH III.IIII JJ.JJJJJJJJKKKKKZ
 KEY: A-CATALOGNUM B-EPOCHTIME C-DECAY D-ELSETNUM E-INCLINATION F-RAAN
 G-ECCENTRICITY H-ARGPERIGEE I-MNANOM J-MNMOTION K-ORBITNUM Z-CHECKSUM

O-29
1 24278U 96046B   01206.65890359 -.00000004  00000-0  35053-4 0 04396
2 24278 098.5341 066.6445 0350172 262.1542 093.9719 13.52777603243846

 ■ 軌道要素2:「jamsat−keps:1023」より
        SB KEPS @ AMSAT  $ORB01207.O
        Orbital Elements  01207.OSCAR

HR AMSAT ORBITAL ELEMENTS FOR OSCAR SATELLITES
FROM WA5QGD FORT WORTH,TX July 26, 2001
SEND SUBSCRIBE/UNSUBSCRIBE TO majordomo@amsat.org ONLY
BID: ORB01207.O
TO ALL RADIO AMATEURS BT
 
Satellite: FO-29
Catalog number: 24278
Epoch time:      01206.65890359
Element set:    0439
Inclination:      098.5341 deg
RA of node:       066.6445 deg
Eccentricity:    0.0350172
Arg of perigee:   262.1542 deg
Mean anomaly:     093.9719 deg
Mean motion:   13.52777603 rev/day
Decay rate:       -4.0e-08 rev/day^2
Epoch rev:           24384
Checksum:              322

-------------------  FO-29(JAS-2)のテレメトリに関する情報  ---------------------- 
 
2)上記8月6日(月)のテレメトリの最終行を分析しておきます.

AS24545C   06AUG2001
19:43-19:56(JST)
FREQ.435.803-.787MHz

HI HI AE C7 88 55 00 D5 00 00 09 00 5E 79 74 64 9D 9B B0 75 A4 9D 97 9E 9E 

テレメトリ   内 容       換算算値 単 位
3C	磁気センサーZ軸=	46078.4	[nT]
3D	磁気センサX軸	=	59313.7	[nT]
4A	太陽電池発生電流=	 1137.3	[mA]
4B	B充放電電流	=	  -40.0	[mA]
4C	B端子電圧	=	   16.9	[V]
4D	B中間端子電圧	=	    7.5	[V]
5A	バス電圧	=	   17.3	[V]
5B	JTA送信電力	=	  662.4	[mW]
5C 	構体温度1	=	   18.2	[℃]
5D	構体温度2	=	   20.9	[℃]
6A	構体温度3	=	   23.2	[℃]
6B	構体温度4	= 	   20.5	[℃]
6C	Bセル温度	=	   20.5	[℃]
   	
 ========================== FO-29(ふじ3号)のQSO情報等 ======================
   
 3)[jamsat-bb:

 ===============================================================================
   4)JARL のホームページに運用予定が記載されていましたのでご紹介します.
       ( http://www.jarl.or.jp/Japanese/3_Fuji/new/uy.htm )

        ■ ふじ3号/FOー29/JAS-2 ■  
   
     *** 運用予定について ***

 7月2日(月) 〜 10月1日(月)アナログ系運用 


  *なお,運用予定は都合により変更することがありますので予めご了承願います。

 照会先 : lab@jarl.or.jp

 最新の情報はテレホンサービス(03−3942−1000)をお聞きください。  
 以後の運用につきましては平成13年10月上旬にお知らせ致します。
    
-----------------------    FO−20(JAS-1b)道要素   -------------------------
  5)
  ■ 軌道要素1 :出典はFO-29「ふじ3号」に同じ.
  
FO-20
1 20480U 90013C   01206.68361789  .00000013  00000-0  10626-3 0 03541
2 20480 099.0543 267.9047 0539715 222.0069 133.8431 12.83295124537030
 
  ■ 軌道要素2 :出典はFO−29「ふじ3号」に同じ.
               
Satellite: FO-20
Catalog number: 20480
Epoch time:      01206.68361789
Element set:    0354
Inclination:      099.0543 deg
RA of node:       267.9047 deg
Eccentricity:    0.0539715
Arg of perigee:   222.0069 deg
Mean anomaly:     133.8431 deg
Mean motion:   12.83295124 rev/day
Decay rate:        1.3e-07 rev/day^2
Epoch rev:           53703
Checksum:              294

 --------------------------------------------------------------------------------
 
         ■ ふじ2号/FO−20/JAS-1b ■      
            
          「ふじ2号」 現況                                                                                  
             
